Hourly Data Report for March 04, 2020

TORONTO CITY
ONTARIO
Current Station Operator: ECCC - MSC

43°40'00.000" N
79°24'00.000" W
112.50 m
6158355
71508
XTO

Download Data

Hourly Data (March 2020)
Hourly Data Report for March 4, 2020
TIME
LST
Temp Definition
°C
Dew Point Definition
°C
Rel Hum Definition
%
Precip. Amount Definition
mm

Wind Dir Definition
10's deg

Wind Spd Definition
km/h
Visibility Definition
km
Stn Press Definition
kPa
Hmdx Definition


Wind Chill Definition


Weather Definition


00:00 3.3 0.2 80 0.0       98.75     LegendNANA
01:00 3.5 0.0 78 0.0       98.79     LegendNANA
02:00 3.5 -0.1 77 0.0       98.81     LegendNANA
03:00 3.5 -1.0 72 0.0       98.83     LegendNANA
04:00 3.5 -1.4 70 0.0       98.95     LegendNANA
05:00 3.4 -1.5 70 0.0       99.02     LegendNANA
06:00 2.9 -1.6 72 0.0       99.10     LegendNANA
07:00 2.3 -1.9 74 0.0       99.22     LegendNANA
08:00 2.7 -1.8 72 0.0       99.30     LegendNANA
09:00 3.4 -1.6 69 0.0       99.33     LegendNANA
10:00 4.4 -1.7 64 0.0       99.34     LegendNANA
11:00 5.7 -2.5 55 0.0       99.33     LegendNANA
12:00 6.1 -3.2 51 0.0       99.34     LegendNANA
13:00 6.8 -2.3 52 0.0       99.31     LegendNANA
14:00 7.5 -3.5 46 0.2       99.29     LegendNANA
15:00 6.1 -4.7 46 0.0       99.39     LegendNANA
16:00 4.6 -2.3 61 0.2       99.50     LegendNANA
17:00 4.5 -3.4 56 0.0       99.61     LegendNANA
18:00 3.4 -3.8 59 0.0       99.79     LegendNANA
19:00 2.6 -5.2 56 0.0       99.89     LegendNANA
20:00 2.3 -4.7 60 0.0       99.98     LegendNANA
21:00 2.5 -5.0 58 0.0       99.99     LegendNANA
22:00 2.5 -4.9 58 0.0       100.11     LegendNANA
23:00 2.4 -5.2 57 0.0       100.22     LegendNANA

Notes on Data Quality.

Legend

  • E = Estimated
  • M = Missing
  • NA = Not Available*
  • [empty] = Indicates an unobserved value
Date modified: